Location: Azul
(36.7830°S, 59.8500°W)
Time: 17:58:24
(UTC-03:00)

FO-29 - Pass Details

Date: 31 October 2021
Orbit: 799 x 1322 km, 98.5° (Epoch: 05 December)

Event Time Altitude Azimuth Distance (km) Brightness Sun altitude
Rises 22:57:23 0° 174° (S) 4,199 13.5 -33.0°
Reaches altitude 10° 23:00:06 10° 180° (S) 3,277 12.9 -33.3°
Maximum altitude 23:07:20 46° 249° (WSW) 1,707 10.9 -34.0°
Enters shadow 23:10:49 30° 301° (WNW) 2,188 11.2 -34.3°
